| time (UTC) | temp F | wind direction | speed knots | gust knots | rain 1hr in | rain 24hr in | rain mn in | humidity % | barometer mb |
| 20260505070031 | 67 | 194 | 10.4 | 15.6 | 0.00 | 0.00 | 0.00 | 65 | 1006.7 |
| 20260505064530 | 66 | 191 | 9.6 | 16.5 | 0.00 | 0.00 | 0.00 | 65 | 1007.0 |
| 20260505063042 | 66 | 161 | 8.7 | 13.0 | 0.00 | 0.00 | 0.00 | 64 | 1007.5 |
| 20260505061534 | 66 | 171 | 7.8 | 13.9 | 0.00 | 0.00 | 0.00 | 64 | 1008.0 |
| 20260505060028 | 67 | 167 | 7.8 | 13.9 | 0.00 | 0.00 | 0.00 | 63 | 1008.0 |
| 20260505054541 | 67 | 178 | 9.6 | 14.8 | 0.00 | 0.00 | 0.00 | 63 | 1008.0 |
| 20260505053030 | 67 | 178 | 9.6 | 15.6 | 0.00 | 0.00 | 0.00 | 62 | 1008.1 |
| 20260505051538 | 68 | 183 | 9.6 | 16.5 | 0.00 | 0.00 | 0.00 | 62 | 1008.0 |
| 20260505041543 | 68 | 169 | 6.1 | 9.6 | 0.00 | 0.00 | 0.00 | 60 | 1008.5 |
| 20260505040030 | 68 | 166 | 7.0 | 10.4 | 0.00 | 0.00 | 0.00 | 59 | 1008.4 |
| 20260505034530 | 69 | 161 | 8.7 | 16.5 | 0.00 | 0.00 | 0.00 | 58 | 1008.4 |
| 20260505033032 | 70 | 175 | 8.7 | 14.8 | 0.00 | 0.00 | 0.00 | 58 | 1008.3 |
| 20260505031532 | 70 | 165 | 9.6 | 14.8 | 0.00 | 0.00 | 0.00 | 58 | 1008.3 |
| 20260505030028 | 70 | 175 | 8.7 | 14.8 | 0.00 | 0.00 | 0.00 | 57 | 1008.2 |
| 20260505024529 | 71 | 152 | 8.7 | 13.9 | 0.00 | 0.00 | 0.00 | 56 | 1008.2 |
| 20260505023031 | 71 | 171 | 9.6 | 13.0 | 0.00 | 0.00 | 0.00 | 56 | 1007.9 |
| 20260505021528 | 71 | 150 | 9.6 | 13.9 | 0.00 | 0.00 | 0.00 | 55 | 1007.7 |
| 20260505020045 | 71 | 167 | 7.0 | 10.4 | 0.00 | 0.00 | 0.00 | 54 | 1007.7 |
| 20260505014531 | 72 | 154 | 6.1 | 9.6 | 0.00 | 0.00 | 0.00 | 53 | 1007.6 |
| 20260505013028 | 73 | 177 | 6.1 | 12.2 | 0.00 | 0.00 | 0.00 | 52 | 1007.4 |
| 20260505011533 | 74 | 171 | 7.8 | 13.0 | 0.00 | 0.00 | 0.00 | 51 | 1007.3 |
| 20260505010032 | 74 | 188 | 7.8 | 14.8 | 0.00 | 0.00 | 0.00 | 51 | 1007.2 |
| 20260505004531 | 75 | 188 | 8.7 | 16.5 | 0.00 | 0.00 | 0.00 | 50 | 1007.0 |
| 20260505003031 | 76 | 166 | 10.4 | 18.2 | 0.00 | 0.00 | 0.00 | 49 | 1007.0 |
| 20260505001533 | 76 | 190 | 8.7 | 20.0 | 0.00 | 0.00 | 0.00 | 49 | 1007.0 |
| 20260505000037 | 77 | 199 | 10.4 | 18.2 | 0.00 | 0.00 | 0.00 | 48 | 1007.0 |
| 20260504234528 | 78 | 194 | 11.3 | 19.1 | 0.00 | 0.00 | 0.00 | 48 | 1007.0 |
| 20260504233028 | 78 | 207 | 12.2 | 22.6 | 0.00 | 0.00 | 0.00 | 48 | 1007.2 |
| 20260504231533 | 78 | 190 | 13.0 | 21.7 | 0.00 | 0.00 | 0.00 | 48 | 1007.1 |
| 20260504230031 | 79 | 219 | 12.2 | 19.1 | 0.00 | 0.00 | 0.00 | 48 | 1007.2 |
| 20260504224532 | 79 | 176 | 12.2 | 21.7 | 0.00 | 0.00 | 0.00 | 47 | 1007.3 |
| 20260504223031 | 79 | 188 | 13.9 | 26.1 | 0.00 | 0.00 | 0.00 | 47 | 1007.3 |
| 20260504221528 | 80 | 215 | 12.2 | 24.3 | 0.00 | 0.00 | 0.00 | 47 | 1007.6 |
| 20260504220028 | 80 | 186 | 10.4 | 20.9 | 0.00 | 0.00 | 0.00 | 47 | 1007.5 |
| 20260504214539 | 80 | 194 | 12.2 | 21.7 | 0.00 | 0.00 | 0.00 | 47 | 1007.6 |
| 20260504213030 | 80 | 227 | 14.8 | 24.3 | 0.00 | 0.00 | 0.00 | 47 | 1007.7 |
| 20260504211530 | 80 | 200 | 12.2 | 22.6 | 0.00 | 0.00 | 0.00 | 47 | 1007.8 |
| 20260504210030 | 80 | 202 | 12.2 | 22.6 | 0.00 | 0.00 | 0.00 | 47 | 1008.1 |
| 20260504204529 | 80 | 207 | 13.0 | 24.3 | 0.00 | 0.00 | 0.00 | 47 | 1008.3 |
| 20260504203030 | 80 | 177 | 12.2 | 21.7 | 0.00 | 0.00 | 0.00 | 47 | 1008.6 |
| 20260504201529 | 80 | 191 | 13.0 | 25.2 | 0.00 | 0.00 | 0.00 | 47 | 1008.8 |
| 20260504200033 | 80 | 216 | 13.0 | 25.2 | 0.00 | 0.00 | 0.00 | 47 | 1008.9 |
| 20260504194528 | 80 | 229 | 15.6 | 25.2 | 0.00 | 0.00 | 0.00 | 47 | 1009.1 |
| 20260504193030 | 80 | 208 | 13.9 | 21.7 | 0.00 | 0.00 | 0.00 | 47 | 1009.4 |
| 20260504191528 | 80 | 225 | 13.0 | 20.9 | 0.00 | 0.00 | 0.00 | 48 | 1009.3 |
| 20260504190027 | 79 | 161 | 14.8 | 24.3 | 0.00 | 0.00 | 0.00 | 48 | 1009.4 |
| 20260504184535 | 80 | 195 | 13.0 | 30.4 | 0.00 | 0.00 | 0.00 | 49 | 1009.4 |
| 20260504183035 | 79 | 197 | 18.2 | 26.1 | 0.00 | 0.00 | 0.00 | 49 | 1009.7 |
| 20260504181528 | 78 | 196 | 14.8 | 26.9 | 0.00 | 0.00 | 0.00 | 50 | 1009.7 |
| 20260504180028 | 78 | 228 | 15.6 | 26.9 | 0.00 | 0.00 | 0.00 | 50 | 1010.1 |
| 20260504174527 | 78 | 206 | 11.3 | 20.9 | 0.00 | 0.00 | 0.00 | 52 | 1010.1 |
| 20260504173030 | 78 | 178 | 14.8 | 22.6 | 0.00 | 0.00 | 0.00 | 53 | 1010.3 |
| 20260504171528 | 77 | 229 | 15.6 | 25.2 | 0.00 | 0.00 | 0.00 | 53 | 1010.5 |
| 20260504081529 | 63 | 182 | 6.1 | 11.3 | 0.00 | 0.00 | 0.00 | 69 | 1011.1 |